Location: Chimay
(50.0486°N, 4.3171°E)
Time: 17:25:52
(UTC+00:00)

IRIDIUM 103 - Pass Details

Date: 08 August 2020
Orbit: 776 x 779 km, 86.4° (Epoch: 24 September)

Event Time Altitude Azimuth Distance (km) Brightness Sun altitude
Rises 19:43:04 0° 169° (SSE) 3,251 7.1 -5.0°
Reaches altitude 10° 19:45:26 10° 165° (SSE) 2,328 6.4 -5.3°
Maximum altitude 19:50:31 56° 88° (E) 930 4.5 -6.0°
Drops below altitude 10° 19:55:38 10° 12° (NNE) 2,345 7.1 -6.7°
Sets 19:58:02 0° 8° (N) 3,278 8.0 -7.0°
